Miscellaneous Local Product
Issued by NWS North Platte, NE

Home | Current Version | Previous Version | Text Only | Print | Product List | Glossary On
Versions: 1 2 3 4 5 6 7 8 9 10 11 12 13 14 15 16 17 18 19 20 21 22 23 24 25 26 27 28 29 30 31 32 33 34 35 36 37 38 39 40 41 42 43 44 45 46 47 48 49 50
803
AXUS43 KLBF 210410
MISLBF


WESTERN AND NORTH CENTRAL NEBRASKA HOURLY WEATHER ROUNDUP
NATIONAL WEATHER SERVICE NORTH PLATTE NE
1100 PM CDT THU JUL 20 2017

NOTE: "FAIR" INDICATES FEW OR NO CLOUDS BELOW 12,000 FEET WITH NO
SIGNIFICANT WEATHER AND/OR OBSTRUCTIONS TO VISIBILITY.

NOTE: STATIONS NOT REPORTING VARIABLES SUCH AS SKY/WEATHER OR
PRESSURE ARE PROVIDED BY RAWS AND APRS NETWORKS AND ARE NOT UNDER
NATIONAL WEATHER SERVICE QUALITY CONTROL.

...OBSERVATIONS IN AND NEAR THE EASTERN PANHANDLE OF NEBRASKA...

CITY           SKY/WX    TMP DP  RH WIND       PRES   REMARKS
PINE RIDGE     PTCLDY    80  63  55 SE8       29.92R
GORDON         FAIR      74  65  74 SE6       29.95R
CHADRON        PTCLDY    83  60  45 S12       29.91R
ALLIANCE       PTCLDY    76  61  59 CALM      29.98R
SIDNEY         PTCLDY    75  62  64 S7        30.03R
CRESCENT LAKE    N/A     78  65  64 SE5         N/A
$$

...OBSERVATIONS IN NORTHERN NEBRASKA AND FAR SOUTHERN SOUTH DAKOTA...

CITY           SKY/WX    TMP DP  RH WIND       PRES   REMARKS
WINNER         FAIR      79  66  64 SE9       29.89F
VALENTINE      CLEAR     81  63  54 E6        29.93R
THEDFORD       CLEAR     80  70  71 SE6       29.95R
AINSWORTH      CLEAR     77  73  88 SE7       29.94S
O`NEILL        CLEAR     77  76  98 E7        29.92S
ORD            CLEAR     77  71  82 CALM      29.88F
BROKEN BOW     CLEAR     79  75  87 SE7       29.91S
VALENTINE NWR    N/A     78  68  72 SE5         N/A
HALSEY           N/A     80  69  68 SE6         N/A
BUTTE            N/A     76  72  88 E5          N/A
CHAMBERS         N/A     77  74  92 CALM        N/A
EWING            N/A     77  73  87 E3          N/A
$$

...OBSERVATIONS IN SOUTHWEST NEBRASKA AND FAR NORTHEAST COLORADO...

CITY           SKY/WX    TMP DP  RH WIND       PRES   REMARKS
HOLYOKE        FAIR      79  66  65 N5        29.97S
IMPERIAL       PTCLDY    81  67  62 W5        29.92S
OGALLALA       PTCLDY    82  67  60 CALM      29.93F
NORTH PLATTE   CLEAR     79  75  87 E10       29.89F
MCCOOK         CLEAR     84  62  47 S9        29.88R
LEXINGTON      CLEAR     81  75  82 SE9       29.89F
STAPLETON        N/A     78  71  80 E3          N/A
GOTHENBURG       N/A     80  73  79 E5          N/A
CALLAWAY         N/A     79  74  85 SE8         N/A
$$

...OBSERVATIONS IN CENTRAL LINCOLN COUNTY AREA...

CITY           SKY/WX    TMP DP  RH WIND       PRES   REMARKS
N.P. AIRPORT   CLEAR     79  75  87 E10       29.89F
N.P. DOWNTOWN    N/A     81  75  82 CALM        N/A
N.P. SOUTHEAST   N/A     80  74  83 SE7         N/A
N.P. HILLCREST   N/A     79  74  83 SE10        N/A
$$

...SOME OBSERVATIONS FROM AROUND THE REGION...

CITY           SKY/WX    TMP DP  RH WIND       PRES   REMARKS
DENVER         CLOUDY    76  51  41 SW13      30.13S
LIMON          CLOUDY    68  60  75 NE10      30.13F
ASPEN          CLOUDY    58  53  84 CALM      30.38R
LARAMIE        CLOUDY    60  54  80 S10       30.27F
CASPER         CLOUDY    66  56  70 NE8       30.15R
CHEYENNE       LGT RAIN  66  54  65 W20G33    30.23R
SCOTTSBLUFF    PTCLDY    79  61  53 SE6       29.98R
GRAND ISLAND   CLEAR     83  76  79 SE12      29.89S HX  91
OMAHA          CLOUDY    87  76  69 SE9       29.88F HX  97
SIOUX FALLS    CLEAR     76  71  85 E7        29.95R
RAPID CITY     CLOUDY    80  59  48 SE7       29.90R
BISMARCK       CLOUDY    73  60  63 E12G20    29.84F
KANSAS CITY    CLEAR     83  74  74 S10       29.95S
HILL CITY      CLEAR     86  59  39 S8        29.89S
WICHITA        CLEAR     87  69  54 S15       29.95R HX  91
DODGE CITY     CLEAR     84  55  36 S14       29.97R
OKLAHOMA CITY  CLEAR     84  69  60 S13       30.00R
DALLAS         CLEAR     89  70  53 SE12      30.00R HX  94
AMARILLO       CLEAR     83  54  36 S15       30.09R
$$




USA.gov is the U.S. government's official web portal to all federal, state and local government web resources and services.